[[{"header":{"parameterUnit":"m.s-1","parameterCategory":2,"la1":30.2991,"la2":30.254,"lo1":-89.0895,"lo2":-89.0444,"dy":0.0017,"dx":0.0017,"nx":28,"ny":28,"refTime":"2024-08-07T21:00:00:Z","depth":"0","parameterNumber":2,"parameterNumberName":"U-component_of_CURRENTS"},"data":[0,0,0,0,0,0,0,0,0,0,0,0,0,0,0,0,0,0,0,0,0,0,0,0,0,0,0,0,0,0,0,0,0,0,0,0,0,0,0,0,0,0,0,0,0,0,0,0,0,0,0,0,0,0,0,0,0,0,0.2755,0.2755,0,0.2738,0.2738,0.2738,0.2714,0.2713,0.2712,0.2711,0.2752,0.2754,0.2756,0,0,0,0,0,0,0,0,0,0,0,0,0,0.2824,0.2823,0.2755,0.2755,0.2754,0.2738,0.2738,0.2738,0.2714,0.2713,0.2712,0.2711,0.2752,0.2754,0.2757,0,0,0,0,0,0,0,0,0,0,0,0,0,0.2805,0.2823,0.2755,0.2735,0.2733,0.2738,0.2738,0.2738,0.2715,0.2713,0.2712,0.271,0.2751,0.2754,0.2757,0.2804,0,0,0.2766,0.2767,0,0,0,0,0,0,0,0,0.2806,0.2803,0.2739,0.2737,0.2734,0.2721,0.2777,0.2761,0.2715,0.2728,0.2711,0.271,0.2745,0.2748,0.2756,0.2806,0.2808,0.2766,0.2768,0.2769,0.277,0,0,0,0,0,0,0,0.2807,0.2804,0.2754,0.2738,0.2735,0.2746,0.2742,0.2774,0.275,0.2727,0.2723,0.2712,0.2744,0.2753,0.2757,0.2808,0.2766,0.2769,0.2771,0.2772,0.2942,0.2945,0,0,0,0,0,0,0.2796,0.2805,0.2755,0.2753,0.276,0.2745,0.2741,0.2732,0.2749,0.2747,0.2714,0.2711,0.2748,0.2753,0.2758,0.2849,0.2769,0.2772,0.2774,0.2939,0.2943,0.2946,0,0,0,0,0,0,0.2798,0.2792,0.2755,0.2774,0.2769,0.2745,0.2735,0.2732,0.2741,0.2737,0.2738,0.2725,0.2748,0.2754,0.2815,0.2849,0.2773,0.2776,0.2936,0.2941,0.2944,0.301,0,0,0,0,0,0,0.28,0.2793,0.2806,0.2773,0.2767,0.2778,0.2736,0.2733,0.2733,0.2731,0.2748,0.2749,0.2747,0.2811,0.2818,0.2852,0.2778,0.2933,0.2938,0.2943,0.3004,0.3016,0.3025,0,0,0,0,0,0.2803,0.2833,0.2807,0.2801,0.2778,0.2779,0.278,0.2761,0.2736,0.2761,0.2776,0.2749,0.2848,0.2816,0.2824,0.2859,0.293,0.2937,0.2943,0.2999,0.3013,0.3025,0,0,0,0,0,0,0.287,0.2831,0.2802,0.2817,0.2802,0.2773,0.2796,0.277,0.2801,0.2795,0.2791,0.2797,0.2858,0.2862,0.2827,0.2926,0.2882,0.289,0.2923,0.2936,0.2947,0.2926,0.2781,0,0,0,0,0,0.2887,0.2899,0.2854,0.2868,0.2861,0.2827,0.283,0.2804,0.281,0.2819,0.2826,0.2848,0.2891,0.2915,0.2944,0.3008,0.3042,0.3036,0.3046,0.3055,0.3047,0.3153,0.3173,0.2966,0.2966,0.2966,0,0,0.2909,0.2895,0.2897,0.2884,0.2869,0.2872,0.2828,0.2829,0.2833,0.2823,0.2858,0.2884,0.2917,0.2983,0.3011,0.299,0.314,0.3063,0.307,0.3056,0.3162,0.3182,0.32,0.297,0.2969,0.2969,0,0,0.2958,0.2951,0.2968,0.2968,0.2944,0.2922,0.2921,0.2893,0.2888,0.2924,0.2921,0.2974,0.3024,0.3059,0.3084,0.3177,0.3189,0.3186,0.3227,0.3333,0.335,0.3365,0.3463,0.3486,0.3196,0.3196,0.3196,0,0.2977,0.299,0.2978,0.2996,0.2991,0.2944,0.2949,0.2952,0.2947,0.296,0.2944,0.3045,0.3061,0.3158,0.3181,0.3198,0.3259,0.3172,0.3346,0.3362,0.3376,0.3472,0.3497,0.32,0.3199,0.3199,0.3198,0,0.303,0.3042,0.306,0.3056,0.3062,0.3064,0.304,0.3054,0.3035,0.3031,0.3106,0.3147,0.3206,0.3227,0.3227,0.3345,0.3357,0.3343,0.3307,0.3401,0.3496,0.3522,0.3205,0.3204,0.3203,0.3202,0,0,0.3012,0.3079,0.3071,0.3083,0.3084,0.3082,0.3113,0.3118,0.3137,0.3163,0.321,0.3289,0.33,0.333,0.3353,0.3432,0.3589,0.3429,0.3433,0.3516,0.3835,0.3823,0.3848,0.3615,0.3619,0.3623,0.387,0,0.3028,0.3082,0.3104,0.3131,0.3143,0.3142,0.3173,0.3185,0.3195,0.324,0.3293,0.335,0.3345,0.338,0.3467,0.3545,0.3654,0.3523,0.374,0.3746,0.3715,0.3876,0.377,0.3979,0.3894,0.3898,0.3901,0,0.3026,0.3069,0.3106,0.3159,0.3161,0.3177,0.3204,0.3228,0.3291,0.3312,0.3391,0.3419,0.354,0.3511,0.3737,0.3659,0.3755,0.3818,0.383,0.3803,0.3779,0.3868,0.4027,0.3913,0.3939,0.3936,0.3934,0,0.298,0.3047,0.3077,0.3095,0.3158,0.3174,0.3197,0.3246,0.3261,0.3358,0.3394,0.3534,0.3608,0.3752,0.3872,0.3827,0.4112,0.4071,0.4166,0.4166,0.4106,0.4093,0.4164,0.4256,0.4255,0.4254,0.4254,0,0.2963,0.2977,0.3063,0.3077,0.3101,0.3157,0.3175,0.3225,0.3293,0.3328,0.3428,0.3496,0.3672,0.383,0.3935,0.4142,0.4189,0.4209,0.4245,0.4129,0.4116,0.4033,0.3908,0.4264,0.4262,0.426,0.4258,0,0.2887,0.2949,0.2981,0.306,0.3075,0.3086,0.3131,0.3158,0.3244,0.3301,0.3337,0.3507,0.3727,0.3908,0.4157,0.423,0.4303,0.4471,0.4317,0.4329,0.4267,0.4149,0.4117,0.4011,0.4624,0.4626,0.4627,0,0.2861,0.2875,0.2939,0.2946,0.2973,0.3001,0.3016,0.3105,0.3139,0.3295,0.3331,0.3557,0.3705,0.4084,0.4276,0.453,0.4364,0.4554,0.4436,0.4285,0.4181,0.399,0.3887,0.4406,0.4405,0.4404,0.4404,0,0.2796,0.281,0.2835,0.2854,0.2869,0.2892,0.2937,0.2948,0.3066,0.3162,0.3308,0.3441,0.3807,0.4021,0.4352,0.4482,0.4313,0.4548,0.4446,0.4065,0.3809,0.3716,0.4212,0.4398,0.4399,0.4399,0.44,0.44,0.272,0.2716,0.274,0.2748,0.2761,0.2771,0.2766,0.2846,0.2912,0.3033,0.321,0.3391,0.3725,0.4175,0.4296,0.4401,0.4306,0.4337,0.423,0.4073,0.3873,0.4351,0.4528,0.4529,0.4531,0.4532,0.4532,0,0.2629,0.2632,0.2637,0.2638,0.2614,0.2666,0.2699,0.2697,0.2757,0.2924,0.3069,0.336,0.362,0.3884,0.4138,0.4095,0.3957,0.4002,0.3698,0.3633,0.4148,0.4038,0.405,0.405,0.405,0.405,0.405,0.4051,0.2571,0.2544,0.2556,0.249,0.2491,0.2444,0.2449,0.248,0.2568,0.2703,0.2851,0.3036,0.3368,0.3659,0.3751,0.373,0.3463,0.3363,0.3307,0.3649,0.3671,0.3691,0.3565,0.3477,0.3476,0.2729,0.2723,0.2718]},{"header":{"parameterUnit":"m.s-1","parameterCategory":2,"la1":30.2991,"la2":30.254,"lo1":-89.0895,"lo2":-89.0444,"dy":0.0017,"dx":0.0017,"nx":28,"ny":28,"refTime":"2024-08-07T21:00:00:Z","depth":"0","parameterNumber":3,"parameterNumberName":"V-component_of_CURRENTS"},"data":[0,0,0,0,0,0,0,0,0,0,0,0,0,0,0,0,0,0,0,0,0,0,0,0,0,0,0,0,0,0,0,0,0,0,0,0,0,0,0,0,0,0,0,0,0,0,0,0,0,0,0,0,0,0,0,0,0,0,0.0123,0.0124,0,0.0124,0.0124,0.0123,0.0114,0.0114,0.0114,0.0114,-0.0027,-0.003,-0.0034,0,0,0,0,0,0,0,0,0,0,0,0,0,0.0092,0.0092,0.0123,0.0124,0.0124,0.0124,0.0124,0.0123,0.0114,0.0114,0.0114,0.0114,-0.0025,-0.003,-0.0034,0,0,0,0,0,0,0,0,0,0,0,0,0,0.0097,0.0092,0.0123,0.0122,0.0122,0.0124,0.0124,0.0123,0.0114,0.0114,0.0114,0.0114,-0.0024,-0.0029,-0.0035,-0.0073,0,0,-0.0053,-0.0055,0,0,0,0,0,0,0,0,0.0097,0.0098,0.0122,0.0122,0.0122,0.0122,0.0061,0.0052,0.0114,0.0113,0.0114,0.0114,0.0012,0.0004,0.0,-0.0079,-0.0085,-0.0053,-0.0057,-0.0059,-0.0061,0,0,0,0,0,0,0,0.0096,0.0097,0.012,0.0122,0.0123,0.0114,0.0115,0.006,0.0057,0.0113,0.0114,0.0119,0.0011,0.0006,-0.0003,-0.0087,-0.0053,-0.0058,-0.0062,-0.0064,-0.0147,-0.0146,0,0,0,0,0,0,0.0105,0.0097,0.012,0.012,0.0114,0.0115,0.0115,0.0119,0.006,0.0054,0.0119,0.0119,0.0016,0.0003,-0.0009,0.0004,-0.0059,-0.0064,-0.0068,-0.0148,-0.0147,-0.0145,0,0,0,0,0,0,0.0104,0.0106,0.012,0.0112,0.0113,0.0116,0.012,0.0119,0.0118,0.0067,0.0057,0.0119,0.0015,-0.0001,-0.0029,-0.0004,-0.0067,-0.0072,-0.015,-0.0148,-0.0146,-0.0011,0,0,0,0,0,0,0.0103,0.0106,0.0107,0.0112,0.0114,0.0125,0.012,0.0119,0.0123,0.0122,0.0063,0.0051,0.0014,-0.002,-0.0035,-0.0013,-0.0077,-0.0151,-0.0149,-0.0147,-0.0017,-0.0004,0.0006,0,0,0,0,0,0.0102,0.0113,0.0107,0.011,0.0117,0.0126,0.0126,0.0125,0.0123,0.0123,0.0103,0.0053,-0.0016,-0.0023,-0.0041,-0.0021,-0.0152,-0.0149,-0.0147,-0.0022,-0.0007,0.0006,0,0,0,0,0,0,0.0118,0.0113,0.0107,0.0121,0.0122,0.0126,0.0129,0.0127,0.0112,0.0109,0.0062,0.0049,0.0034,-0.0016,-0.0023,-0.0037,-0.0091,-0.0092,0.001,0.0023,0.0034,0.006,-0.0081,0,0,0,0,0,0.0118,0.0114,0.0116,0.0128,0.0127,0.0125,0.0127,0.0128,0.012,0.0114,0.0082,0.0049,0.0031,0.0011,-0.0025,-0.0043,-0.008,-0.004,-0.0029,-0.0019,-0.0009,-0.003,-0.0019,-0.0136,-0.0136,-0.0136,0,0,0.0135,0.0127,0.013,0.0129,0.0127,0.0143,0.0126,0.0133,0.0157,0.0096,0.0108,0.0079,0.0034,0.0034,0.0022,-0.0005,-0.0003,-0.0015,-0.0006,-0.0002,-0.0026,-0.0014,-0.0004,-0.0134,-0.0135,-0.0135,0,0,0.0163,0.0151,0.0156,0.0156,0.0153,0.0154,0.0159,0.016,0.0167,0.0172,0.0151,0.015,0.0096,0.0098,0.0086,0.0131,0.0057,0.0107,0.0184,0.0165,0.0175,0.0183,0.0161,0.0166,0.0114,0.0114,0.0114,0,0.0184,0.0192,0.0163,0.0171,0.0186,0.0164,0.0192,0.0196,0.0195,0.0214,0.0187,0.0177,0.0137,0.0169,0.0197,0.0159,0.0128,0.014,0.0182,0.0189,0.0195,0.017,0.0174,0.0121,0.012,0.0119,0.0119,0,0.0218,0.0227,0.0234,0.0235,0.0242,0.0262,0.0266,0.0275,0.0276,0.0292,0.0316,0.0282,0.0282,0.0274,0.0249,0.0283,0.0241,0.02,0.0152,0.0215,0.0185,0.0186,0.0131,0.0128,0.0126,0.0125,0,0,0.0274,0.026,0.0267,0.0279,0.0281,0.0297,0.0329,0.0366,0.0407,0.0399,0.0454,0.0447,0.0434,0.042,0.039,0.0382,0.0406,0.0317,0.0313,0.0306,0.0359,0.0325,0.0322,0.0367,0.0368,0.0368,0.0325,0,0.0319,0.0345,0.0331,0.038,0.0399,0.0393,0.0433,0.046,0.0476,0.0516,0.0508,0.0532,0.0488,0.0492,0.0485,0.0426,0.0414,0.0421,0.029,0.0286,0.0257,0.0325,0.0307,0.0266,0.0326,0.0326,0.0326,0,0.0367,0.0376,0.0422,0.0454,0.0465,0.0495,0.0554,0.0585,0.0629,0.064,0.0665,0.0648,0.0664,0.0596,0.0545,0.0548,0.0468,0.0413,0.0409,0.033,0.0255,0.0209,0.0266,0.0059,0.0328,0.0328,0.0328,0,0.0419,0.0449,0.0487,0.0499,0.0528,0.056,0.0585,0.0632,0.0672,0.0717,0.0747,0.0752,0.0751,0.0674,0.058,0.0555,0.0501,0.0444,0.0339,0.0334,0.027,0.0259,0.0121,0.0392,0.0392,0.0392,0.0393,0,0.0476,0.051,0.0514,0.0539,0.0601,0.0608,0.0683,0.0708,0.0759,0.0823,0.0813,0.0855,0.0766,0.0729,0.062,0.0504,0.053,0.0371,0.033,0.0317,0.0311,0.0087,-0.0008,0.0391,0.0391,0.0391,0.0392,0,0.0524,0.0528,0.057,0.0606,0.0621,0.0666,0.0723,0.0779,0.0819,0.0895,0.0911,0.0933,0.0896,0.08,0.0679,0.0557,0.0337,0.0382,0.0378,0.0338,0.0037,-0.0048,-0.0193,-0.0263,0.026,0.0259,0.0258,0,0.0548,0.057,0.061,0.0636,0.0652,0.0709,0.0754,0.0801,0.0857,0.0947,0.099,0.0993,0.1018,0.0851,0.0654,0.0475,0.0306,0.0292,0.0241,0.0035,-0.009,-0.0139,-0.0191,0.0208,0.0207,0.0206,0.0205,0,0.059,0.0599,0.0629,0.0676,0.0723,0.0781,0.0845,0.0897,0.0967,0.1045,0.1131,0.1163,0.1029,0.0881,0.0638,0.0476,0.0156,0.0264,0.0052,-0.013,-0.0193,-0.0286,0.0214,0.0197,0.0198,0.0199,0.0199,0.0199,0.0618,0.0642,0.0673,0.0724,0.0776,0.0854,0.0919,0.0999,0.1106,0.1254,0.1251,0.1354,0.1088,0.078,0.0524,0.0037,0.008,-0.013,-0.0211,-0.0239,-0.0321,0.0165,0.0099,0.0099,0.0099,0.01,0.01,0,0.0654,0.0676,0.0718,0.0784,0.0851,0.0875,0.0984,0.1072,0.1213,0.1367,0.1466,0.1417,0.1054,0.0658,0.0038,-0.0355,-0.0482,-0.0579,-0.0673,-0.0699,-0.0278,-0.0297,-0.0453,-0.0453,-0.0453,-0.0453,-0.0452,-0.0452,0.0678,0.0718,0.0738,0.0842,0.0892,0.1005,0.1079,0.1216,0.1349,0.1562,0.167,0.1725,0.1402,0.0234,-0.0623,-0.0832,-0.1075,-0.113,-0.1238,-0.0997,-0.0962,-0.0929,-0.0973,-0.1268,-0.1268,-0.1621,-0.1625,-0.1628]}],[{"header":{"parameterUnit":"m.s-1","parameterCategory":2,"la1":30.2991,"la2":30.254,"lo1":-89.0895,"lo2":-89.0444,"dy":0.0017,"dx":0.0017,"nx":28,"ny":28,"refTime":"2024-08-07T21:00:00:Z","depth":"2","parameterNumber":2,"parameterNumberName":"U-component_of_CURRENTS"},"data":[0,0,0,0,0,0,0,0,0,0,0,0,0,0,0,0,0,0,0,0,0,0,0,0,0,0,0,0,0,0,0,0,0,0,0,0,0,0,0,0,0,0,0,0,0,0,0,0,0,0,0,0,0,0,0,0,0,0,0.1626,0.1626,0,0.1571,0.157,0.1569,0.1574,0.1575,0.1577,0.1578,0.1613,0.1613,0.1612,0,0,0,0,0,0,0,0,0,0,0,0,0,0.1478,0.1481,0.1626,0.1626,0.1626,0.1572,0.157,0.1569,0.1574,0.1575,0.1577,0.1579,0.1613,0.1613,0.1612,0,0,0,0,0,0,0,0,0,0,0,0,0,0.1488,0.1482,0.1626,0.1627,0.1627,0.1572,0.157,0.1568,0.1573,0.1576,0.1578,0.158,0.1614,0.1613,0.1612,0.1563,0,0,0.161,0.161,0,0,0,0,0,0,0,0,0.1488,0.1493,0.1627,0.1627,0.1627,0.1588,0.1531,0.1574,0.1573,0.1586,0.1578,0.1581,0.1616,0.1615,0.1589,0.1565,0.1566,0.161,0.161,0.1609,0.1609,0,0,0,0,0,0,0,0.1488,0.1494,0.1598,0.1627,0.1627,0.1542,0.1548,0.1537,0.1586,0.1585,0.1587,0.1592,0.1616,0.1589,0.159,0.1567,0.161,0.1609,0.1609,0.1609,0.1675,0.1677,0,0,0,0,0,0,0.152,0.1495,0.1599,0.1597,0.157,0.1545,0.1551,0.1593,0.1584,0.1586,0.159,0.1592,0.1589,0.1591,0.1591,0.1688,0.1609,0.1609,0.1608,0.1673,0.1676,0.1678,0,0,0,0,0,0,0.1518,0.1532,0.1602,0.1547,0.1551,0.1548,0.1593,0.1591,0.1604,0.1588,0.1591,0.1612,0.1591,0.1592,0.1618,0.1684,0.1608,0.1608,0.167,0.1674,0.1677,0.1782,0,0,0,0,0,0,0.1514,0.1532,0.1556,0.1551,0.1556,0.1591,0.1591,0.1588,0.1604,0.1607,0.1606,0.1609,0.1593,0.1619,0.1617,0.1681,0.1607,0.1668,0.1672,0.1676,0.1775,0.1788,0.1799,0,0,0,0,0,0.151,0.1528,0.1558,0.1569,0.1597,0.1592,0.1585,0.1582,0.1604,0.1603,0.1616,0.1611,0.1645,0.1619,0.1616,0.1683,0.1666,0.1671,0.1675,0.177,0.1786,0.1799,0,0,0,0,0,0,0.1462,0.1531,0.1563,0.1602,0.1614,0.1596,0.1593,0.1601,0.1605,0.1625,0.1617,0.1619,0.1675,0.1655,0.1627,0.1715,0.1663,0.1668,0.1736,0.175,0.1762,0.1791,0.1607,0,0,0,0,0,0.1471,0.1514,0.1556,0.1583,0.1605,0.161,0.1606,0.1616,0.1623,0.1627,0.1634,0.1653,0.1681,0.1698,0.1704,0.1733,0.1756,0.1782,0.1793,0.1803,0.1827,0.1916,0.1938,0.1694,0.1694,0.1694,0,0,0.1454,0.15,0.1522,0.1576,0.1591,0.162,0.1613,0.163,0.1662,0.1631,0.1678,0.169,0.1698,0.1744,0.1769,0.1743,0.1884,0.181,0.1818,0.1836,0.1923,0.1947,0.1969,0.1697,0.1697,0.1696,0,0,0.1441,0.1503,0.1539,0.1565,0.1612,0.1624,0.1648,0.1668,0.1694,0.1722,0.1739,0.1794,0.1797,0.1839,0.1857,0.1935,0.1943,0.1942,0.2027,0.2113,0.2134,0.2153,0.2212,0.2235,0.1949,0.195,0.195,0,0.1421,0.1493,0.1535,0.1579,0.1612,0.1646,0.1688,0.1708,0.1731,0.1776,0.1758,0.1847,0.1852,0.1955,0.1987,0.1968,0.2003,0.1971,0.2131,0.215,0.2168,0.2223,0.2248,0.1955,0.1955,0.1954,0.1954,0,0.1441,0.1503,0.1525,0.162,0.1647,0.1684,0.1746,0.1791,0.1832,0.1862,0.1966,0.1975,0.2041,0.2057,0.2043,0.2187,0.2167,0.2135,0.2098,0.2199,0.225,0.2274,0.1963,0.1961,0.196,0.1958,0,0,0.1409,0.1521,0.1536,0.1593,0.1684,0.1709,0.1798,0.1889,0.1966,0.2008,0.2109,0.2178,0.2209,0.2233,0.2245,0.2316,0.2467,0.2287,0.2289,0.235,0.2654,0.2475,0.2483,0.2468,0.2473,0.2477,0.2639,0,0.1426,0.1509,0.1568,0.1655,0.1714,0.1793,0.1867,0.1955,0.2026,0.2122,0.2202,0.2283,0.227,0.2314,0.2398,0.2445,0.2536,0.2426,0.2542,0.2545,0.2379,0.2507,0.2309,0.2422,0.2662,0.2665,0.2668,0,0.1449,0.1507,0.1589,0.1713,0.175,0.1801,0.1955,0.2023,0.2174,0.2237,0.2358,0.2404,0.2548,0.2497,0.2683,0.2614,0.2662,0.2687,0.2693,0.2509,0.2411,0.236,0.2456,0.2708,0.2704,0.2701,0.2699,0,0.1417,0.1535,0.1603,0.1642,0.1772,0.1839,0.1918,0.2063,0.2139,0.2322,0.2388,0.2558,0.2631,0.2744,0.28,0.2768,0.2965,0.292,0.2814,0.2801,0.2645,0.2608,0.3073,0.3073,0.3072,0.3072,0.3071,0,0.1425,0.1485,0.1594,0.163,0.172,0.1828,0.1941,0.2049,0.2201,0.2304,0.2445,0.2543,0.2697,0.2807,0.2866,0.2907,0.3034,0.2865,0.2847,0.267,0.2636,0.2881,0.2856,0.3078,0.3077,0.3075,0.3074,0,0.1386,0.1456,0.1535,0.1663,0.1704,0.177,0.1919,0.2006,0.2159,0.2299,0.2361,0.2562,0.2707,0.2818,0.2986,0.2956,0.3027,0.3009,0.2769,0.2718,0.2797,0.2776,0.2937,0.2932,0.2929,0.2925,0.2923,0,0.1382,0.1414,0.1524,0.156,0.1619,0.1724,0.18,0.1967,0.2053,0.2297,0.2355,0.2541,0.2645,0.2801,0.2796,0.2865,0.2969,0.2705,0.2594,0.2825,0.2792,0.2777,0.2762,0.2451,0.2445,0.244,0.2435,0,0.1361,0.1391,0.1441,0.1504,0.1576,0.1658,0.1775,0.1825,0.2034,0.2149,0.2324,0.2429,0.255,0.2519,0.2554,0.2565,0.267,0.2592,0.2968,0.2468,0.2366,0.2333,0.2335,0.2389,0.2394,0.2397,0.2399,0.2401,0.1335,0.1349,0.1399,0.1454,0.1525,0.1589,0.1623,0.175,0.186,0.2001,0.2158,0.2245,0.2275,0.2203,0.2191,0.2196,0.2344,0.2295,0.2314,0.2337,0.2204,0.2096,0.2044,0.2047,0.2049,0.2051,0.2053,0,0.1293,0.1314,0.1355,0.1409,0.1437,0.1514,0.1603,0.1611,0.1695,0.1828,0.1926,0.1788,0.178,0.1874,0.1787,0.1768,0.178,0.1746,0.1773,0.1818,0.1859,0.1704,0.1411,0.1409,0.1407,0.1406,0,0,0.1272,0.127,0.1282,0.1302,0.135,0.1367,0.1395,0.1427,0.1483,0.1491,0.1532,0.1622,0.1756,0.1512,0.1498,0.1465,0.1629,0.1416,0.1928,0.2002,0.204,0.217,0.198,0,0,0,0,0]},{"header":{"parameterUnit":"m.s-1","parameterCategory":2,"la1":30.2991,"la2":30.254,"lo1":-89.0895,"lo2":-89.0444,"dy":0.0017,"dx":0.0017,"nx":28,"ny":28,"refTime":"2024-08-07T21:00:00:Z","depth":"2","parameterNumber":3,"parameterNumberName":"V-component_of_CURRENTS"},"data":[0,0,0,0,0,0,0,0,0,0,0,0,0,0,0,0,0,0,0,0,0,0,0,0,0,0,0,0,0,0,0,0,0,0,0,0,0,0,0,0,0,0,0,0,0,0,0,0,0,0,0,0,0,0,0,0,0,0,-0.0225,-0.0225,0,-0.0288,-0.0289,-0.0289,-0.031,-0.031,-0.031,-0.031,-0.0376,-0.0378,-0.038,0,0,0,0,0,0,0,0,0,0,0,0,0,-0.0148,-0.0149,-0.0225,-0.0226,-0.0226,-0.0288,-0.0289,-0.0289,-0.031,-0.031,-0.031,-0.031,-0.0376,-0.0378,-0.038,0,0,0,0,0,0,0,0,0,0,0,0,0,-0.0192,-0.015,-0.0225,-0.0245,-0.0248,-0.0288,-0.0289,-0.029,-0.031,-0.031,-0.031,-0.031,-0.0375,-0.0378,-0.0381,-0.0404,0,0,-0.0389,-0.0391,0,0,0,0,0,0,0,0,-0.019,-0.0195,-0.0241,-0.0244,-0.0247,-0.0292,-0.0286,-0.0328,-0.031,-0.0285,-0.031,-0.0309,-0.0349,-0.0354,-0.0365,-0.0407,-0.041,-0.039,-0.0391,-0.0393,-0.0394,0,0,0,0,0,0,0,-0.0187,-0.0193,-0.0249,-0.0242,-0.0245,-0.026,-0.0266,-0.0294,-0.0317,-0.0288,-0.029,-0.0298,-0.035,-0.0362,-0.0367,-0.0411,-0.039,-0.0392,-0.0394,-0.0395,-0.0458,-0.0457,0,0,0,0,0,0,-0.018,-0.019,-0.0247,-0.0251,-0.0218,-0.0262,-0.0268,-0.0277,-0.0317,-0.0323,-0.0298,-0.0299,-0.0358,-0.0364,-0.0369,-0.0348,-0.0393,-0.0395,-0.0397,-0.0458,-0.0458,-0.0457,0,0,0,0,0,0,-0.0178,-0.0184,-0.0244,-0.0222,-0.0231,-0.0263,-0.0273,-0.0278,-0.0284,-0.0325,-0.0331,-0.0299,-0.0358,-0.0365,-0.0386,-0.0353,-0.0397,-0.0399,-0.0458,-0.0458,-0.0458,-0.0339,0,0,0,0,0,0,-0.0176,-0.0183,-0.0184,-0.0222,-0.0232,-0.0257,-0.0274,-0.028,-0.0291,-0.0292,-0.0328,-0.0334,-0.0358,-0.0382,-0.0389,-0.0358,-0.0402,-0.0458,-0.0458,-0.0458,-0.0343,-0.0335,-0.0328,0,0,0,0,0,-0.0173,-0.0177,-0.0184,-0.0191,-0.0233,-0.0257,-0.0263,-0.0284,-0.0291,-0.0289,-0.0314,-0.0333,-0.0386,-0.0384,-0.0393,-0.0361,-0.0458,-0.0458,-0.0458,-0.0347,-0.0337,-0.0329,0,0,0,0,0,0,-0.0134,-0.0181,-0.0189,-0.0203,-0.0222,-0.026,-0.0266,-0.028,-0.0299,-0.0299,-0.0334,-0.0342,-0.0347,-0.0382,-0.0379,-0.0384,-0.0424,-0.0426,-0.0337,-0.0328,-0.0321,-0.0288,-0.0404,0,0,0,0,0,-0.0128,-0.0149,-0.0182,-0.0191,-0.02,-0.023,-0.0242,-0.0256,-0.0281,-0.0289,-0.031,-0.0338,-0.0356,-0.0363,-0.0391,-0.0395,-0.0432,-0.0384,-0.0376,-0.0369,-0.0352,-0.0398,-0.0392,-0.0457,-0.0457,-0.0457,0,0,-0.0114,-0.0144,-0.0153,-0.0185,-0.0203,-0.0199,-0.0236,-0.025,-0.0232,-0.0294,-0.0279,-0.0315,-0.0355,-0.0353,-0.0358,-0.0374,-0.037,-0.0369,-0.0362,-0.0348,-0.0397,-0.039,-0.0385,-0.0457,-0.0457,-0.0457,0,0,-0.0096,-0.0122,-0.0129,-0.0139,-0.0165,-0.018,-0.018,-0.0209,-0.0207,-0.0209,-0.0241,-0.0256,-0.029,-0.0299,-0.0311,-0.0284,-0.0332,-0.0299,-0.0223,-0.0268,-0.0262,-0.0258,-0.0285,-0.0283,-0.0289,-0.0289,-0.0288,0,-0.0067,-0.0082,-0.0131,-0.0128,-0.0122,-0.0164,-0.0142,-0.0149,-0.0175,-0.0163,-0.019,-0.0224,-0.0257,-0.0241,-0.0226,-0.0261,-0.0296,-0.0246,-0.0255,-0.0251,-0.0249,-0.0278,-0.0278,-0.0283,-0.0283,-0.0284,-0.0285,0,-0.0053,-0.005,-0.0052,-0.0059,-0.0061,-0.0052,-0.0063,-0.0059,-0.0067,-0.007,-0.0064,-0.0115,-0.013,-0.0143,-0.0171,-0.0159,-0.0194,-0.0241,-0.0268,-0.0234,-0.0268,-0.027,-0.0275,-0.0277,-0.0278,-0.028,0,0,0.0005,-0.0033,-0.0024,-0.0007,-0.0016,-0.0012,0.0017,0.0037,0.0069,0.0042,0.008,0.0049,0.0018,0.0001,-0.0042,-0.0072,-0.0079,-0.0136,-0.0141,-0.0144,-0.0168,-0.0221,-0.0229,-0.0134,-0.0134,-0.0134,-0.0194,0,0.0051,0.0065,0.0038,0.009,0.0109,0.0093,0.0129,0.0141,0.0143,0.0166,0.0128,0.0136,0.0076,0.007,0.0034,-0.0052,-0.0083,-0.0058,-0.0217,-0.0221,-0.0257,-0.0232,-0.0215,-0.027,-0.0196,-0.0197,-0.0197,0,0.0099,0.0102,0.014,0.0172,0.0182,0.0206,0.0258,0.0285,0.0302,0.0303,0.0298,0.026,0.0241,0.0164,0.0054,0.007,-0.0032,-0.0109,-0.0114,-0.0204,-0.0278,-0.0298,-0.0278,-0.0202,-0.0201,-0.0201,-0.0201,0,0.0169,0.0193,0.0223,0.0235,0.0251,0.028,0.0302,0.033,0.0371,0.0391,0.0413,0.0369,0.0352,0.0227,0.0082,0.0063,-0.0059,-0.0115,-0.0254,-0.0259,-0.0295,-0.0303,-0.0204,-0.0204,-0.0204,-0.0204,-0.0204,0,0.0237,0.0275,0.0256,0.0279,0.0345,0.0341,0.0418,0.0434,0.0472,0.0538,0.0488,0.0519,0.0361,0.0275,0.0123,-0.0059,-0.0033,-0.0228,-0.0277,-0.0254,-0.0258,-0.0245,-0.0249,-0.0206,-0.0206,-0.0205,-0.0205,0,0.0306,0.029,0.0337,0.0358,0.0372,0.0423,0.0486,0.0547,0.0567,0.0646,0.0659,0.0631,0.0524,0.0352,0.0155,-0.0002,-0.0178,-0.0258,-0.0207,-0.0251,-0.0357,-0.0354,-0.0412,-0.0414,-0.0416,-0.0418,-0.042,0,0.0328,0.0353,0.0392,0.0426,0.0435,0.0501,0.0557,0.0595,0.066,0.0723,0.077,0.0704,0.0663,0.0365,0.0089,-0.0186,-0.0206,-0.0357,-0.04,-0.0335,-0.0378,-0.0372,-0.0367,-0.0394,-0.0395,-0.0395,-0.0396,0,0.0381,0.0393,0.0426,0.0497,0.0555,0.0634,0.0711,0.077,0.0832,0.0888,0.0957,0.0927,0.0656,0.0382,-0.0003,-0.0182,-0.0312,-0.0387,-0.033,-0.035,-0.0325,-0.0364,-0.0358,-0.0404,-0.0403,-0.0403,-0.0402,-0.0402,0.0414,0.0456,0.0497,0.0575,0.0651,0.0758,0.0836,0.0927,0.103,0.1089,0.1052,0.0978,0.0655,0.0141,-0.0117,-0.0373,-0.0392,-0.0504,-0.0498,-0.0492,-0.0485,-0.0466,-0.0569,-0.0569,-0.0569,-0.0569,-0.0569,0,0.0439,0.0496,0.0573,0.0668,0.077,0.0801,0.0934,0.1016,0.1148,0.1132,0.1134,0.0796,0.0471,0.0168,-0.0234,-0.0507,-0.0491,-0.0559,-0.0486,-0.0479,-0.0473,-0.0462,-0.0541,-0.0541,-0.0541,-0.0541,0,0,0.0451,0.0527,0.0579,0.0744,0.0826,0.0966,0.1047,0.1172,0.1198,0.1167,0.107,0.085,0.0486,0.0181,-0.0151,-0.0324,-0.0331,-0.0354,-0.0361,-0.0232,-0.0221,-0.0441,-0.0417,0,0,0,0,0]}],[{"header":{"parameterUnit":"m.s-1","parameterCategory":2,"la1":30.2991,"la2":30.254,"lo1":-89.0895,"lo2":-89.0444,"dy":0.0017,"dx":0.0017,"nx":28,"ny":28,"refTime":"2024-08-07T21:00:00:Z","depth":"4","parameterNumber":2,"parameterNumberName":"U-component_of_CURRENTS"},"data":[0,0,0,0,0,0,0,0,0,0,0,0,0,0,0,0,0,0,0,0,0,0,0,0,0,0,0,0,0,0,0,0,0,0,0,0,0,0,0,0,0,0,0,0,0,0,0,0,0,0,0,0,0,0,0,0,0,0,0.0467,0.0467,0,0.0509,0.051,0.051,0.055,0.055,0.055,0.0551,0.0592,0.0592,0.0593,0,0,0,0,0,0,0,0,0,0,0,0,0,0.0421,0.0421,0.0466,0.0467,0.0467,0.0509,0.051,0.051,0.0549,0.055,0.055,0.0551,0.0591,0.0592,0.0593,0,0,0,0,0,0,0,0,0,0,0,0,0,0.045,0.0421,0.0466,0.0491,0.0494,0.0509,0.051,0.051,0.0549,0.055,0.0551,0.0551,0.0591,0.0592,0.0593,0.0587,0,0,0.0596,0.0597,0,0,0,0,0,0,0,0,0.0448,0.0452,0.0487,0.049,0.0493,0.0524,0.0508,0.0536,0.0549,0.0529,0.0551,0.0552,0.0568,0.0571,0.0579,0.0589,0.0591,0.0597,0.0597,0.0598,0.0598,0,0,0,0,0,0,0,0.0446,0.045,0.0484,0.0488,0.0491,0.0501,0.0506,0.0514,0.0545,0.0531,0.0534,0.0537,0.057,0.0577,0.058,0.0591,0.0597,0.0597,0.0598,0.0599,0.0659,0.066,0,0,0,0,0,0,0.0439,0.0448,0.0483,0.0485,0.0471,0.0501,0.0507,0.0514,0.0545,0.055,0.0537,0.0539,0.0575,0.0579,0.0581,0.0637,0.0598,0.0599,0.0599,0.0658,0.0659,0.066,0,0,0,0,0,0,0.0438,0.0442,0.0481,0.0467,0.0473,0.0501,0.0509,0.0514,0.054,0.0549,0.0555,0.0558,0.0576,0.058,0.0614,0.0636,0.0599,0.06,0.0657,0.0658,0.066,0.0708,0,0,0,0,0,0,0.0436,0.0441,0.0445,0.0467,0.0473,0.0489,0.0508,0.0515,0.0539,0.0543,0.0569,0.0572,0.0577,0.0613,0.0616,0.0637,0.0601,0.0656,0.0658,0.0659,0.0706,0.0711,0.0716,0,0,0,0,0,0.0435,0.0436,0.0445,0.0449,0.0477,0.0489,0.0493,0.0516,0.054,0.0544,0.058,0.0573,0.0626,0.0615,0.0618,0.064,0.0655,0.0657,0.0659,0.0703,0.071,0.0716,0,0,0,0,0,0,0.0418,0.0441,0.0451,0.046,0.0473,0.0495,0.0508,0.0525,0.0556,0.0571,0.0588,0.0594,0.0631,0.0627,0.0615,0.0662,0.0638,0.0641,0.067,0.0677,0.0682,0.0687,0.0602,0,0,0,0,0,0.0415,0.0424,0.0444,0.045,0.0464,0.049,0.0501,0.0516,0.0544,0.056,0.0593,0.062,0.0638,0.0652,0.0667,0.0693,0.0673,0.0708,0.0713,0.0718,0.0723,0.0703,0.0707,0.0667,0.0667,0.0667,0,0,0.0412,0.0424,0.043,0.0447,0.0469,0.0494,0.05,0.0521,0.0558,0.0558,0.0634,0.0641,0.0649,0.0684,0.07,0.0688,0.0721,0.0721,0.0725,0.0727,0.0706,0.071,0.0713,0.0669,0.0669,0.0668,0,0,0.0409,0.0424,0.0435,0.0451,0.0476,0.0497,0.0507,0.0548,0.0585,0.0642,0.0653,0.067,0.0724,0.0723,0.0729,0.0769,0.0749,0.0781,0.0815,0.0796,0.0799,0.0801,0.0786,0.0787,0.0785,0.0785,0.0785,0,0.0404,0.0426,0.0437,0.0456,0.0483,0.0505,0.0535,0.0571,0.0623,0.0653,0.0676,0.0738,0.0739,0.0761,0.0783,0.078,0.0773,0.079,0.0802,0.0804,0.0805,0.0789,0.0789,0.0787,0.0787,0.0787,0.0786,0,0.041,0.0438,0.045,0.0491,0.0514,0.054,0.059,0.0636,0.0693,0.0719,0.0776,0.0789,0.0821,0.0821,0.0824,0.0835,0.0829,0.0809,0.0783,0.0812,0.0794,0.0793,0.0791,0.079,0.0789,0.0789,0,0,0.0377,0.0444,0.045,0.0484,0.054,0.0558,0.0635,0.0691,0.0733,0.0793,0.0846,0.0878,0.0881,0.0888,0.0881,0.0867,0.087,0.0857,0.0854,0.0839,0.0842,0.0863,0.0864,0.086,0.086,0.086,0.0827,0,0.0386,0.0427,0.0469,0.0529,0.0561,0.0622,0.069,0.0739,0.0791,0.0845,0.0862,0.0909,0.0909,0.0931,0.0918,0.0886,0.0871,0.0882,0.082,0.0818,0.083,0.0864,0.086,0.0826,0.0826,0.0826,0.0826,0,0.0379,0.0412,0.0471,0.0561,0.0585,0.0639,0.0734,0.0793,0.0857,0.0903,0.094,0.0954,0.0973,0.096,0.093,0.0946,0.0906,0.087,0.0867,0.0869,0.0837,0.0791,0.0823,0.0824,0.0824,0.0824,0.0824,0,0.0333,0.0417,0.0469,0.0497,0.0597,0.0665,0.0738,0.0812,0.0864,0.0944,0.098,0.0996,0.1029,0.0987,0.0954,0.0948,0.0898,0.0869,0.0842,0.0842,0.0808,0.0806,0.0827,0.0827,0.0827,0.0827,0.0827,0,0.032,0.0359,0.0463,0.0488,0.0568,0.0657,0.0745,0.0818,0.0904,0.093,0.1014,0.1025,0.1041,0.1021,0.0964,0.0921,0.0912,0.0859,0.084,0.0831,0.0832,0.0807,0.0805,0.0826,0.0826,0.0826,0.0827,0,0.0259,0.0324,0.0381,0.0502,0.0549,0.061,0.0762,0.0806,0.0918,0.0957,0.0997,0.1063,0.1067,0.1058,0.0987,0.0951,0.0886,0.0859,0.0869,0.0849,0.0835,0.0836,0.0831,0.0832,0.0833,0.0833,0.0833,0,0.0236,0.0254,0.0367,0.041,0.0481,0.0591,0.066,0.0799,0.0832,0.0943,0.0937,0.101,0.1034,0.0977,0.0964,0.091,0.0884,0.0864,0.0842,0.0856,0.0837,0.0838,0.0838,0.0834,0.0834,0.0834,0.0834,0,0.0177,0.0215,0.0259,0.0346,0.0432,0.0509,0.0618,0.0643,0.0769,0.0861,0.089,0.0929,0.0944,0.0941,0.0948,0.0877,0.0892,0.0868,0.0866,0.0845,0.0859,0.084,0.084,0.0836,0.0836,0.0836,0.0836,0,0.0125,0.0136,0.0197,0.0281,0.037,0.0428,0.0492,0.0567,0.0637,0.0768,0.0746,0.0833,0.0895,0.0919,0.0878,0.0887,0.0863,0.0826,0.0825,0.0824,0.0844,0.0862,0.0833,0,0,0,0,0,0.0069,0.0082,0.0138,0.0224,0.031,0.0368,0.046,0.0518,0.062,0.0627,0.0705,0.0718,0.0775,0.0807,0.0812,0.0854,0.0844,0.0856,0.0795,0.0846,0.0844,0.0873,0,0,0,0,0,0,0.0031,0.0058,0.0103,0.0172,0.0225,0.0307,0.0366,0.0425,0.0446,0.0552,0.0582,0.0684,0.0733,0.076,0.0796,0.0809,0.0762,0.0914,0.0913,0.0847,0.0845,0.0843,0.0873,0,0,0,0,0]},{"header":{"parameterUnit":"m.s-1","parameterCategory":2,"la1":30.2991,"la2":30.254,"lo1":-89.0895,"lo2":-89.0444,"dy":0.0017,"dx":0.0017,"nx":28,"ny":28,"refTime":"2024-08-07T21:00:00:Z","depth":"4","parameterNumber":3,"parameterNumberName":"V-component_of_CURRENTS"},"data":[0,0,0,0,0,0,0,0,0,0,0,0,0,0,0,0,0,0,0,0,0,0,0,0,0,0,0,0,0,0,0,0,0,0,0,0,0,0,0,0,0,0,0,0,0,0,0,0,0,0,0,0,0,0,0,0,0,0,-0.0156,-0.0156,0,-0.0151,-0.0151,-0.0151,-0.0173,-0.0173,-0.0174,-0.0174,-0.0252,-0.0253,-0.0255,0,0,0,0,0,0,0,0,0,0,0,0,0,-0.0166,-0.0166,-0.0156,-0.0156,-0.0156,-0.0151,-0.0151,-0.0151,-0.0173,-0.0173,-0.0174,-0.0175,-0.0251,-0.0253,-0.0255,0,0,0,0,0,0,0,0,0,0,0,0,0,-0.0162,-0.0166,-0.0156,-0.0165,-0.0166,-0.0151,-0.0151,-0.0151,-0.0172,-0.0173,-0.0174,-0.0175,-0.0251,-0.0253,-0.0255,-0.0253,0,0,-0.0262,-0.0263,0,0,0,0,0,0,0,0,-0.0162,-0.0162,-0.0164,-0.0164,-0.0165,-0.0162,-0.0182,-0.0189,-0.0172,-0.0171,-0.0174,-0.0175,-0.0228,-0.0232,-0.023,-0.0257,-0.026,-0.0263,-0.0264,-0.0265,-0.0266,0,0,0,0,0,0,0,-0.0163,-0.0162,-0.0155,-0.0164,-0.0164,-0.0163,-0.0163,-0.0183,-0.0197,-0.0171,-0.0173,-0.017,-0.0229,-0.0227,-0.0232,-0.0261,-0.0262,-0.0265,-0.0266,-0.0267,-0.0411,-0.0414,0,0,0,0,0,0,-0.0161,-0.0162,-0.0155,-0.0155,-0.0165,-0.0162,-0.0163,-0.0163,-0.0195,-0.02,-0.0169,-0.0171,-0.0223,-0.0229,-0.0235,-0.0323,-0.0265,-0.0267,-0.0268,-0.0409,-0.0412,-0.0415,0,0,0,0,0,0,-0.0161,-0.0161,-0.0155,-0.0157,-0.0156,-0.0161,-0.0161,-0.0163,-0.0169,-0.0193,-0.02,-0.0176,-0.0224,-0.0232,-0.0271,-0.0323,-0.0268,-0.027,-0.0406,-0.041,-0.0413,-0.0442,0,0,0,0,0,0,-0.0162,-0.0161,-0.0164,-0.0157,-0.0156,-0.0141,-0.016,-0.0162,-0.0165,-0.0168,-0.02,-0.0208,-0.0225,-0.0267,-0.0273,-0.0325,-0.0272,-0.0403,-0.0408,-0.0412,-0.0438,-0.0446,-0.0453,0,0,0,0,0,-0.0162,-0.0154,-0.0165,-0.0164,-0.016,-0.014,-0.0139,-0.0146,-0.0165,-0.0158,-0.0199,-0.0207,-0.0302,-0.027,-0.0277,-0.033,-0.0401,-0.0406,-0.0412,-0.0435,-0.0445,-0.0453,0,0,0,0,0,0,-0.0156,-0.0155,-0.0167,-0.0159,-0.0151,-0.0143,-0.014,-0.0148,-0.0171,-0.0185,-0.0217,-0.0226,-0.029,-0.0302,-0.0266,-0.039,-0.0362,-0.0369,-0.0377,-0.0387,-0.0394,-0.0384,-0.0274,0,0,0,0,0,-0.0157,-0.0154,-0.0151,-0.0143,-0.0144,-0.0146,-0.0143,-0.0145,-0.0161,-0.0171,-0.0205,-0.0256,-0.0315,-0.0341,-0.0381,-0.0428,-0.0416,-0.0477,-0.0485,-0.0491,-0.049,-0.0519,-0.0528,-0.0433,-0.0433,-0.0432,0,0,-0.0154,-0.0151,-0.0151,-0.0142,-0.0143,-0.0145,-0.0147,-0.0137,-0.0161,-0.0178,-0.0232,-0.0275,-0.0333,-0.04,-0.0431,-0.0417,-0.0509,-0.0498,-0.0502,-0.0499,-0.0526,-0.0535,-0.0543,-0.0436,-0.0436,-0.0435,0,0,-0.0134,-0.0144,-0.0136,-0.0134,-0.013,-0.0136,-0.0136,-0.0142,-0.017,-0.0215,-0.0257,-0.0322,-0.0394,-0.0449,-0.049,-0.056,-0.0546,-0.0591,-0.0621,-0.0649,-0.0656,-0.0663,-0.0633,-0.0636,-0.0596,-0.0597,-0.0597,0,-0.0133,-0.0128,-0.0128,-0.0123,-0.0131,-0.0138,-0.0142,-0.0166,-0.0191,-0.0225,-0.0241,-0.0384,-0.0424,-0.0527,-0.0565,-0.0578,-0.0568,-0.0576,-0.0656,-0.0662,-0.0668,-0.0636,-0.0639,-0.0599,-0.0598,-0.0598,-0.0598,0,-0.0109,-0.0116,-0.011,-0.0121,-0.0126,-0.0124,-0.0159,-0.0188,-0.0237,-0.0267,-0.0372,-0.0438,-0.0522,-0.0566,-0.0591,-0.0676,-0.0645,-0.0655,-0.0621,-0.0678,-0.0642,-0.0645,-0.0601,-0.0601,-0.06,-0.06,0,0,-0.0093,-0.0094,-0.0098,-0.0107,-0.0131,-0.0126,-0.0187,-0.0234,-0.0272,-0.0347,-0.0413,-0.0546,-0.0577,-0.0625,-0.0675,-0.0714,-0.0745,-0.0707,-0.0707,-0.0656,-0.0765,-0.0726,-0.0725,-0.0768,-0.077,-0.0771,-0.0711,0,-0.0084,-0.0069,-0.0087,-0.0102,-0.0104,-0.015,-0.0202,-0.025,-0.0307,-0.0367,-0.0474,-0.055,-0.0604,-0.0649,-0.0704,-0.0741,-0.0759,-0.0757,-0.0736,-0.0734,-0.0677,-0.073,-0.0776,-0.0713,-0.0714,-0.0714,-0.0715,0,-0.0073,-0.0061,-0.0065,-0.0099,-0.0108,-0.0134,-0.0209,-0.0251,-0.0343,-0.0391,-0.0489,-0.0545,-0.0652,-0.0672,-0.0763,-0.0759,-0.0764,-0.078,-0.0778,-0.0735,-0.0703,-0.0655,-0.0719,-0.0719,-0.0719,-0.0718,-0.0718,0,-0.0056,-0.0062,-0.0065,-0.0073,-0.0106,-0.0148,-0.0188,-0.0265,-0.0296,-0.0402,-0.0421,-0.0555,-0.0607,-0.0676,-0.0731,-0.0746,-0.0782,-0.0801,-0.076,-0.0754,-0.0788,-0.0782,-0.0836,-0.0836,-0.0836,-0.0836,-0.0836,0,-0.0049,-0.0056,-0.0057,-0.0058,-0.0078,-0.0126,-0.0169,-0.0229,-0.0293,-0.0307,-0.0428,-0.0459,-0.0611,-0.0653,-0.0708,-0.074,-0.0765,-0.0766,-0.0753,-0.0798,-0.0795,-0.0787,-0.0782,-0.0834,-0.0834,-0.0835,-0.0835,0,-0.0043,-0.0042,-0.0039,-0.0061,-0.0069,-0.009,-0.0136,-0.0155,-0.0226,-0.0246,-0.0277,-0.0383,-0.0459,-0.0561,-0.0646,-0.0686,-0.0731,-0.0719,-0.0717,-0.0703,-0.0679,-0.0677,-0.0681,-0.068,-0.0679,-0.0678,-0.0677,0,-0.0038,-0.0032,-0.0023,-0.0011,-0.0027,-0.0051,-0.0063,-0.0127,-0.0131,-0.0186,-0.0181,-0.0265,-0.0339,-0.0418,-0.0549,-0.0641,-0.0656,-0.0655,-0.0728,-0.0685,-0.0672,-0.0671,-0.0671,-0.0675,-0.0674,-0.0674,-0.0674,0,-0.0026,-0.0026,-0.0014,0.002,0.002,0.0028,0.0008,0.0015,-0.004,-0.0069,-0.0091,-0.0174,-0.0242,-0.038,-0.0447,-0.052,-0.0666,-0.0643,-0.0647,-0.0715,-0.0677,-0.0665,-0.0666,-0.0669,-0.067,-0.067,-0.0671,0,-0.0022,-0.0007,0.0017,0.0037,0.0065,0.0079,0.0064,0.0063,0.0049,0.0002,0.001,-0.0106,-0.0179,-0.031,-0.0374,-0.0455,-0.049,-0.0512,-0.0524,-0.053,-0.0531,-0.0463,-0.038,0,0,0,0,0,-0.0023,-0.0007,0.0032,0.0052,0.0088,0.0094,0.0108,0.0093,0.0075,0.0084,0.0043,-0.002,-0.0156,-0.0233,-0.0305,-0.0374,-0.0518,-0.046,-0.0552,-0.0645,-0.065,-0.0678,0,0,0,0,0,0,-0.0026,0.0006,0.0031,0.0067,0.0085,0.0109,0.0118,0.0106,0.0104,0.0083,0.001,-0.002,-0.0162,-0.0112,-0.0302,-0.0331,-0.0393,-0.0529,-0.053,-0.0642,-0.0647,-0.0651,-0.0682,0,0,0,0,0]}]]